Zurück zum Katalog

STARLINK-35417

AktivKommunikationVLEO
NORAD 66335·PAYLOAD·🇺🇸 United States

Gestartet Nov 6, 2025 von Cape Canaveral Space Force Station

Loading…

Nächste Überflüge (nächste 24 Stunden)

TLE

AktuellSource: CelesTrak SupGP

Epoche: Sep 14, 2026, 23:02 UTC

1 66335C 25253S   26257.96020833  .00008860  00000+0  32081-3 0  2578
2 66335  43.0007 223.6482 0001315 263.3230 343.9259 15.27582804    13

Verfolge STARLINK-35417 in Echtzeit mit AllMySat

Download on the App Store